星链-2516 (STARLINK-2516 )

导读 | 豆包AI

STARLINK-2516是美国SpaceX公司星链(Starlink)星座的卫星,于2021年4月29日发射。作为星链卫星互联网项目的组成部分,它运行在近地轨道,依托低轨星座优势,可为全球网络覆盖盲区提供高速宽带接入,相比传统同步轨道卫星延迟更低,助力实现全球高速互联网接入服务,星链项目整体在民用通信领域已获得广泛商业应用。

基本信息
目录编号:
48283
目录名称:
STARLINK-2516
国际标识:
2021-036H
轨道中心:
EARTH
卫星名称:
星链-2516
卫星全名:
星链-2516 (STARLINK-2516 )
卫星状态:
在轨 (已飞行1780 天)
发射日期:
2021-04-29 UTC
国别 :
美国 (US)
星等 :
--
轨道信息
数据来源 国际轨道数据
星历时间: 2026-03-14T06:32:36+0800
16小时前
查看轨道信息
半长轴: 6853.391km
偏心率: 0.0001345
轨道倾角: 53.161°
近地点辐角 89.474°
升交点赤经 55.632°
平近点角 270.641°
近地点: 474.332km
远地点: 476.176km
周期: 94.106分钟
每日圈数: 15.301871
详细信息
固有亮度:
5
最大亮度:
2.5
卫星平台:
Starlink V1.0
覆盖范围:
全球
运营商:
太空探索技术公司
运营商所在国:
美国
制造商(研发单位):
太空探索技术公司
制造商所在国:
美国
使用方式:
暂无
卫星简介
星链(Starlink)计划是由太空探索技术公司(SpaceX)提出的一个巨型低轨卫星互联网星座项目,计划在2019年至2024年间在太空搭建由约1.2万颗卫星组成的“星链”网络,其中1584颗将部署在地球上空550千米处的近地轨道,并从2020年开始工作。该卫星仍在工作。
2D轨道图
3D轨道图
轨道高度分析图
轨道倾角分析图
轨道综合分析图
查看轨道综合分析图